Weather in Katravozh

Russia / Yamalo-Nenets Autonomous Okrug     66°19′24″N   66°04′46″E
temp.,
°C
wind,
m/s
gust,
m/s
humid.,
%
clouds,
%
prec.,
mm/h
press.,
hPa
HPBL,
m
27 february, sat
sat2723:00−25s119878 0.0 102120
02:00−26s1110039 0.0 102120
05:00−27ssw1110019 0.0 102220
08:00−28ssw111000 0.0 102119
11:00−24ssw12962 0.0 102266
14:00−21ssw229443 0.0 1022170
17:00−24ssw229850 0.0 102220
20:00−25ssw2310058 0.0 102120
28 february, sun
sun2823:00−26ssw2310075 0.0 102119
02:00−26ssw2310098 0.0 102020
05:00−27ssw339997 0.1 102020
08:00−28ssw3310086 0.0 102021
11:00−25ssw369687 0.0 1020218
14:00−24ssw369482 0.0 1020262
17:00−26ssw339681 0.0 102026
20:00−28ssw339797 0.0 101923
1 march, mon
mon123:00−28ssw339897 0.0 101923
02:00−28ssw339897 0.0 101829
05:00−28sw339998 0.1 101836
08:00−29ssw349998 0.0 101746
11:00−26sw589791 0.0 1015276
14:00−23ssw5896100 0.0 1013345
17:00−24ssw369899 0.0 101298
20:00−25s469999 0.0 1009113
2 march, tue
tue223:00−23s4898100 0.1 1007192
02:00−21s51097100 0.1 1005319
05:00−18s61195100 0.1 1004418
08:00−18s61196100 0.5 1002454
11:00−17s71096100 1.4 1002475
14:00−16s61095100 0.7 1002494
17:00−16s61095100 1.3 1002490
20:00−15s61195100 0.6 1001483
3 march, wed
wed323:00−14s61094100 1.3 1001506
02:00−14s61095100 0.5 1001421
05:00−15s61095100 1.0 1001402
08:00−15s5995100 0.5 1000391
11:00−15s6994100 1.0 1001434
14:00−14s5893100 0.4 1001497
17:00−14s4894100 0.8 1001474
20:00−14s4995100 0.3 1001349